This demonstration page uses our WeatherBlox Daily Observations layout. Learn more.

Left ArrowRight Arrow

34.74481, -87.66753

Hourly Observations for December 4, 2020

Temp ( °F °C ) Dew Point ( °F °C ) Humidity (%) Winds ( mph kmh ) Pressure ( in mb ) Visibility ( mi km ) Precip ( " mm )
12:09 am 00:09 Cloudy with Rain 45 7.2 43 6.1 93 93 ESE 5 7 30.12 1020 2 3 0.09 2.29
12:14 am 00:14 Cloudy with Rain 45 7.2 43 6.1 93 93 SE 3 6 30.13 1020 3 5 0.10 2.54
12:53 am 00:53 Cloudy with Light Rain 45 7.2 43 6.1 93 93 ESE 3 6 30.09 1019 6 10 0.13 3.30
1:53 am 01:53 Cloudy with Light Rain 46 7.8 43 6.1 89 89 Calm 30.09 1019 4 6 0.06 1.52
2:03 am 02:03 Cloudy with Light Rain 46 7.8 43 6.1 89 89 NW 5 7 30.10 1019 3 5 0.00 0.00
2:11 am 02:11 Cloudy with Light Rain 46 7.8 43 6.1 89 89 WNW 3 6 30.11 1020 3 5 0.01 0.25
2:27 am 02:27 Cloudy with Rain 46 7.8 43 6.1 89 89 WNW 5 7 30.11 1020 2 3 0.05 1.27
2:51 am 02:51 Cloudy with Rain 46 8 43 6 87 87 Calm 30.11 1020 2 3 0.12 3.05
2:53 am 02:53 Cloudy with Heavy Rain 46 7.8 43 6.1 89 89 Calm 30.10 1019 2 3 0.14 3.56
3:06 am 03:06 Cloudy with Rain 46 7.8 43 6.1 89 89 Calm 30.10 1019 3 4 0.03 0.76
3:24 am 03:24 Cloudy with Light Rain 46 7.8 43 6.1 89 89 ESE 3 6 30.09 1019 3 5 0.04 1.02
3:37 am 03:37 Cloudy with Light Rain 46 7.8 43 6.1 89 89 S 3 6 30.10 1019 3 5 0.05 1.27
3:45 am 03:45 Cloudy with Heavy Rain 46 7.8 44 6.7 93 93 Calm 30.09 1019 2 3 0.08 2.03
3:51 am 03:51 Cloudy with Light Rain 46 8 43 6 87 87 SE 8 13 30.08 1019 3 5 0.08 2.03
3:53 am 03:53 Cloudy with Light Rain 46 7.8 43 6.1 89 89 SE 7 11 30.07 1018 4 6 0.08 2.03
4:10 am 04:10 Cloudy with Heavy Rain 46 7.8 44 6.7 93 93 Calm 30.09 1019 2 3 0.04 1.02
4:17 am 04:17 Cloudy with Rain 46 7.8 44 6.7 93 93 Calm 30.09 1019 2 3 0.06 1.52
4:53 am 04:53 Cloudy with Rain 46 7.8 44 6.7 93 93 S 3 6 30.09 1019 3 5 0.14 3.56
5:08 am 05:08 Cloudy with Light Rain 46 7.8 44 6.7 93 93 SSE 6 9 30.08 1019 3 4 0.01 0.25
5:16 am 05:16 Cloudy with Rain 46 7.8 43 6.1 89 89 SE 7 11 30.07 1018 2 3 0.02 0.51
5:34 am 05:34 Cloudy with Light Rain 46 7.8 44 6.7 93 93 SE 5 7 30.07 1018 3 5 0.03 0.76
5:41 am 05:41 Cloudy with Mist and Fog 46 7.8 44 6.7 93 93 SE 8 13 30.06 1018 4 6 0.03 0.76
5:53 am 05:53 Cloudy with Light Rain 46 7.8 44 6.7 93 93 SE 8 13 30.04 1017 4 6 0.03 0.76
6:11 am 06:11 Cloudy 47 8.3 44 6.7 90 90 SSE 3 6 30.07 1018 8 13 0.00 0.00
6:23 am 06:23 Cloudy with Light Rain 47 8.3 44 6.7 90 90 S 3 6 30.07 1018 9 14 0.00 0.00
6:53 am 06:53 Cloudy with Rain 47 8.3 44 6.7 90 90 Calm 30.06 1018 6 10 0.01 0.25
7:05 am 07:05 Cloudy with Light Rain 47 8.3 44 6.7 90 90 W 6 9 30.08 1019 8 13 0.00 0.00
7:19 am 07:19 Cloudy with Light Rain 47 8.3 44 6.7 90 90 W 7 11 30.08 1019 7 11 0.00 0.00
7:53 am 07:53 Cloudy with Light Rain 47 8.3 44 6.7 90 90 W 7 11 30.07 1018 6 10 0.01 0.25
8:18 am 08:18 Cloudy with Light Rain 47 8.3 44 6.7 90 90 W 9 15 30.09 1019 3 4 0.03 0.76
8:25 am 08:25 Cloudy with Light Rain 47 8.3 44 6.7 90 90 WNW 10 17 30.08 1019 8 13 0.03 0.76
8:53 am 08:53 Cloudy 47 8.3 43 6.1 86 86 WNW 9 15 30.07 1018 10 16 0.03 0.76
9:20 am 09:20 Cloudy with Mist and Fog 46 7.8 43 6.1 89 89 W 10 17 30.08 1019 3 5 0.00 0.00
9:53 am 09:53 Cloudy 46 7.8 42 5.6 86 86 WNW 13 20 30.08 1019 8 13 0.00 0.00
10:38 am 10:38 Cloudy 46 7.8 42 5.6 86 86 WNW 14 22 30.08 1019 10 16 0.00 0.00
10:53 am 10:53 Cloudy 46 7.8 41 5 83 83 WNW 14 22 30.07 1018 9 14 0.00 0.00
11:35 am 11:35 Cloudy 46 7.8 41 5 83 83 WNW 13 20 30.07 1018 7 11 0.00 0.00
11:53 am 11:53 Cloudy 46 7.8 41 5 83 83 W 12 19 30.05 1018 8 13 0.00 0.00
12:07 pm 12:07 Cloudy 47 8.3 41 5 80 80 W 15 24 30.06 1018 7 11 0.00 0.00
12:53 pm 12:53 Cloudy 47 8.3 39 3.9 74 74 WNW 12 19 30.04 1017 9 14 0.00 0.00
1:53 pm 13:53 Cloudy 48 8.9 38 3.3 68 68 WNW 13 20 30.04 1017 10 16 0.00 0.00
2:53 pm 14:53 Cloudy 48 8.9 36 2.2 63 63 WNW 14 22 30.06 1018 10 16 0.00 0.00
3:53 pm 15:53 Cloudy 47 8.3 35 1.7 63 63 WNW 13 20 30.07 1018 10 16 0.00 0.00
4:53 pm 16:53 Cloudy 46 7.8 36 2.2 68 68 WNW 10 17 30.09 1019 10 16 0.00 0.00
5:53 pm 17:53 Cloudy 46 7.8 37 2.8 71 71 WNW 7 11 30.11 1020 10 16 0.00 0.00
6:53 pm 18:53 Cloudy 44 6.7 37 2.8 76 76 WNW 5 7 30.12 1020 10 16 0.00 0.00
7:53 pm 19:53 Clear 41 5 36 2.2 82 82 W 5 7 30.14 1021 10 16 0.00 0.00
8:53 pm 20:53 Clear 39 3.9 35 1.7 86 86 W 5 7 30.16 1021 10 16 0.00 0.00
9:53 pm 21:53 Clear 38 3.3 34 1.1 86 86 SW 5 7 30.16 1022 10 16 0.00 0.00
10:53 pm 22:53 Clear 39 3.9 35 1.7 86 86 Calm 30.16 1021 10 16 0.00 0.00
11:53 pm 23:53 Clear 36 2.2 33 0.6 89 89 Calm 30.16 1021 10 16 0.00 0.00

Powered by AerisWeather